Time,TemperatureF,DewpointF,PressureIn,WindDirection,WindDirectionDegrees,WindSpeedMPH,WindSpeedGustMPH,Humidity,HourlyPrecipIn,Conditions,Clouds,dailyrainin,SoftwareType,DateUTC
2013-01-21 00:00:00,31.9,29.6,30.30,NNW,338,1.1,8.1,91,0.00,,,0.00,WUHU216HW,2013-01-21 08:00:00,
2013-01-21 00:05:00,31.9,29.9,30.30,NNW,338,1.6,6.5,92,0.00,,,0.00,WUHU216HW,2013-01-21 08:05:00,
2013-01-21 00:10:00,31.7,29.7,30.30,NNW,338,1.1,2.5,92,0.00,,,0.00,WUHU216HW,2013-01-21 08:10:00,
2013-01-21 00:15:00,31.7,29.7,30.30,NW,315,3.1,3.1,92,0.00,,,0.00,WUHU216HW,2013-01-21 08:15:00,
2013-01-21 00:20:00,31.9,29.9,30.30,NW,315,2.2,3.1,92,0.00,,,0.00,WUHU216HW,2013-01-21 08:20:00,
2013-01-21 00:25:00,31.9,29.9,30.30,NW,315,2.2,2.5,92,0.00,,,0.00,WUHU216HW,2013-01-21 08:25:00,
2013-01-21 00:30:00,31.9,29.9,30.30,NNW,338,2.0,3.4,92,0.00,,,0.00,WUHU216HW,2013-01-21 08:30:00,
2013-01-21 00:35:00,31.7,29.7,30.30,NW,315,2.2,3.4,92,0.00,,,0.00,WUHU216HW,2013-01-21 08:35:00,
2013-01-21 00:40:00,31.9,29.9,30.30,North,0,0.9,2.7,92,0.00,,,0.00,WUHU216HW,2013-01-21 08:40:00,
2013-01-21 00:45:00,31.7,29.7,30.30,NW,315,1.1,3.1,92,0.00,,,0.00,WUHU216HW,2013-01-21 08:45:00,
2013-01-21 00:50:00,31.7,29.7,30.30,WNW,293,1.1,3.1,92,0.00,,,0.00,WUHU216HW,2013-01-21 08:50:00,
2013-01-21 00:55:00,31.9,29.9,30.30,NW,315,0.9,2.5,92,0.00,,,0.00,WUHU216HW,2013-01-21 08:55:00,
2013-01-21 01:00:00,31.7,29.7,30.30,NNW,338,0.4,2.0,92,0.00,,,0.00,WUHU216HW,2013-01-21 09:00:00,
2013-01-21 01:05:00,31.9,29.9,30.30,North,0,0.4,1.8,92,0.00,,,0.00,WUHU216HW,2013-01-21 09:05:00,
2013-01-21 01:10:00,31.7,29.7,30.30,WNW,293,1.1,1.8,92,0.00,,,0.00,WUHU216HW,2013-01-21 09:10:00,
2013-01-21 01:15:00,31.7,29.7,30.30,WNW,293,0.0,1.1,92,0.00,,,0.00,WUHU216HW,2013-01-21 09:15:00,
2013-01-21 01:20:00,31.7,29.7,30.30,West,270,0.0,1.1,92,0.00,,,0.00,WUHU216HW,2013-01-21 09:20:00,
2013-01-21 01:25:00,31.7,29.7,30.30,SE,135,0.0,0.4,92,0.00,,,0.00,WUHU216HW,2013-01-21 09:25:00,
2013-01-21 01:30:00,31.7,29.7,30.30,NNE,23,0.0,0.0,92,0.00,,,0.00,WUHU216HW,2013-01-21 09:30:00,
2013-01-21 01:35:00,31.5,29.5,30.30,North,0,0.0,0.4,92,0.00,,,0.00,WUHU216HW,2013-01-21 09:35:00,
2013-01-21 01:40:00,31.5,29.5,30.30,East,90,0.4,1.1,92,0.00,,,0.00,WUHU216HW,2013-01-21 09:40:00,
2013-01-21 01:45:00,31.3,29.4,30.30,NNE,23,0.4,1.1,92,0.00,,,0.00,WUHU216HW,2013-01-21 09:45:00,
2013-01-21 01:50:00,31.3,29.4,30.30,North,0,1.6,2.0,92,0.00,,,0.00,WUHU216HW,2013-01-21 09:50:00,
2013-01-21 01:55:00,31.5,29.5,30.30,North,0,1.6,2.0,92,0.00,,,0.00,WUHU216HW,2013-01-21 09:55:00,
2013-01-21 02:00:00,31.5,29.5,30.30,North,0,2.7,3.4,92,0.00,,,0.00,WUHU216HW,2013-01-21 10:00:00,
2013-01-21 02:05:00,31.5,29.5,30.30,North,0,1.8,3.6,92,0.00,,,0.00,WUHU216HW,2013-01-21 10:05:00,
2013-01-21 02:10:00,31.5,29.5,30.31,NNE,23,1.8,3.6,92,0.00,,,0.00,WUHU216HW,2013-01-21 10:10:00,
2013-01-21 02:15:00,31.5,29.5,30.30,North,0,1.8,2.7,92,0.00,,,0.00,WUHU216HW,2013-01-21 10:15:00,
2013-01-21 02:20:00,31.5,29.5,30.31,North,0,2.9,4.5,92,0.00,,,0.00,WUHU216HW,2013-01-21 10:20:00,
2013-01-21 02:25:00,31.5,29.5,30.31,NNW,338,1.6,4.5,92,0.00,,,0.00,WUHU216HW,2013-01-21 10:25:00,
2013-01-21 02:30:00,31.5,29.5,30.31,NNE,23,2.9,3.8,92,0.00,,,0.00,WUHU216HW,2013-01-21 10:30:00,
2013-01-21 02:35:00,31.5,29.7,30.31,North,0,2.9,2.9,93,0.00,,,0.00,WUHU216HW,2013-01-21 10:35:00,
2013-01-21 02:40:00,31.7,29.9,30.30,North,0,2.7,3.4,93,0.00,,,0.00,WUHU216HW,2013-01-21 10:40:00,
2013-01-21 02:45:00,31.7,29.7,30.30,NNE,23,1.3,3.4,92,0.00,,,0.00,WUHU216HW,2013-01-21 10:45:00,
2013-01-21 02:50:00,31.7,29.9,30.30,NE,45,1.1,2.7,93,0.00,,,0.00,WUHU216HW,2013-01-21 10:50:00,
2013-01-21 02:55:00,31.5,29.7,30.30,North,0,2.0,2.0,93,0.00,,,0.00,WUHU216HW,2013-01-21 10:55:00,
2013-01-21 03:00:00,31.7,29.9,30.30,North,0,2.2,2.2,93,0.00,,,0.00,WUHU216HW,2013-01-21 11:00:00,
2013-01-21 03:05:00,31.7,29.9,30.30,North,0,1.8,2.2,93,0.00,,,0.00,WUHU216HW,2013-01-21 11:05:00,
2013-01-21 03:10:00,31.7,29.9,30.30,ENE,68,1.1,2.5,93,0.00,,,0.00,WUHU216HW,2013-01-21 11:10:00,
2013-01-21 03:15:00,31.7,29.7,30.30,North,0,0.4,2.5,92,0.00,,,0.00,WUHU216HW,2013-01-21 11:15:00,
2013-01-21 03:21:00,31.7,29.9,30.30,North,0,0.9,1.1,93,0.00,,,0.00,WUHU216HW,2013-01-21 11:21:00,
2013-01-21 03:26:00,31.9,30.1,30.30,North,0,0.4,2.0,93,0.00,,,0.00,WUHU216HW,2013-01-21 11:26:00,
2013-01-21 03:31:00,32.0,30.2,30.30,NNE,23,1.8,2.0,93,0.00,,,0.00,WUHU216HW,2013-01-21 11:31:00,
2013-01-21 03:36:00,32.0,30.2,30.30,North,0,0.0,2.5,93,0.00,,,0.00,WUHU216HW,2013-01-21 11:36:00,
2013-01-21 03:41:00,32.0,30.2,30.30,North,0,1.6,2.5,93,0.00,,,0.00,WUHU216HW,2013-01-21 11:41:00,
2013-01-21 03:46:00,32.0,30.2,30.30,NNW,338,0.9,2.0,93,0.00,,,0.00,WUHU216HW,2013-01-21 11:46:00,
2013-01-21 03:51:00,32.0,30.2,30.29,North,0,0.9,4.3,93,0.00,,,0.00,WUHU216HW,2013-01-21 11:51:00,
2013-01-21 03:56:00,32.0,30.2,30.29,North,0,0.4,4.3,93,0.00,,,0.00,WUHU216HW,2013-01-21 11:56:00,
2013-01-21 04:01:00,32.0,30.2,30.29,East,90,0.2,1.1,93,0.00,,,0.00,WUHU216HW,2013-01-21 12:01:00,
2013-01-21 04:06:00,32.0,30.2,30.29,ENE,68,0.2,1.1,93,0.00,,,0.00,WUHU216HW,2013-01-21 12:06:00,
2013-01-21 04:11:00,31.9,30.1,30.29,NNE,23,0.0,1.1,93,0.00,,,0.00,WUHU216HW,2013-01-21 12:11:00,
2013-01-21 04:16:00,32.0,30.2,30.29,NE,45,0.0,1.1,93,0.00,,,0.00,WUHU216HW,2013-01-21 12:16:00,
2013-01-21 04:21:00,32.0,30.2,30.29,NNE,23,1.3,1.3,93,0.00,,,0.00,WUHU216HW,2013-01-21 12:21:00,
2013-01-21 04:26:00,32.0,30.2,30.29,NNW,338,0.4,1.3,93,0.00,,,0.00,WUHU216HW,2013-01-21 12:26:00,
2013-01-21 04:31:00,32.0,30.2,30.29,NNW,338,0.0,1.1,93,0.00,,,0.00,WUHU216HW,2013-01-21 12:31:00,
2013-01-21 04:36:00,32.0,30.2,30.29,NNW,338,0.0,1.1,93,0.00,,,0.00,WUHU216HW,2013-01-21 12:36:00,
2013-01-21 04:41:00,32.0,30.2,30.28,NNW,338,0.0,0.9,93,0.00,,,0.00,WUHU216HW,2013-01-21 12:41:00,
2013-01-21 04:46:00,32.2,30.4,30.28,ENE,68,0.4,2.2,93,0.00,,,0.00,WUHU216HW,2013-01-21 12:46:00,
2013-01-21 04:51:00,32.0,30.2,30.28,SE,135,0.0,2.2,93,0.00,,,0.00,WUHU216HW,2013-01-21 12:51:00,
2013-01-21 04:56:00,32.0,30.2,30.28,East,90,0.0,1.8,93,0.00,,,0.00,WUHU216HW,2013-01-21 12:56:00,
2013-01-21 05:01:00,32.0,30.2,30.28,ENE,68,0.0,0.2,93,0.00,,,0.00,WUHU216HW,2013-01-21 13:01:00,
2013-01-21 05:06:00,32.0,30.2,30.28,SSW,203,0.4,0.4,93,0.00,,,0.00,WUHU216HW,2013-01-21 13:06:00,
2013-01-21 05:11:00,32.0,30.2,30.27,South,180,2.5,2.5,93,0.00,,,0.00,WUHU216HW,2013-01-21 13:11:00,
2013-01-21 05:16:00,32.2,30.4,30.27,South,180,2.5,2.5,93,0.00,,,0.00,WUHU216HW,2013-01-21 13:16:00,
2013-01-21 05:21:00,32.4,30.6,30.27,SSE,158,1.8,2.7,93,0.00,,,0.00,WUHU216HW,2013-01-21 13:21:00,
2013-01-21 05:26:00,32.6,30.8,30.27,South,180,4.0,4.0,93,0.00,,,0.00,WUHU216HW,2013-01-21 13:26:00,
2013-01-21 05:31:00,32.6,30.8,30.27,SSE,158,2.0,4.5,93,0.00,,,0.00,WUHU216HW,2013-01-21 13:31:00,
2013-01-21 05:36:00,32.4,30.6,30.27,NW,315,0.0,4.5,93,0.00,,,0.00,WUHU216HW,2013-01-21 13:36:00,
2013-01-21 05:41:00,32.4,30.6,30.27,South,180,4.9,4.9,93,0.00,,,0.00,WUHU216HW,2013-01-21 13:41:00,
2013-01-21 05:46:00,32.4,30.6,30.27,ESE,113,0.0,4.9,93,0.00,,,0.00,WUHU216HW,2013-01-21 13:46:00,
2013-01-21 05:51:00,32.0,30.2,30.27,SE,135,0.0,3.8,93,0.00,,,0.00,WUHU216HW,2013-01-21 13:51:00,
2013-01-21 05:56:00,32.0,30.2,30.26,WNW,293,0.0,1.1,93,0.00,,,0.00,WUHU216HW,2013-01-21 13:56:00,
2013-01-21 06:01:00,32.0,30.2,30.26,NW,315,0.0,1.1,93,0.00,,,0.00,WUHU216HW,2013-01-21 14:01:00,
2013-01-21 06:06:00,32.0,30.2,30.25,ENE,68,0.4,0.7,93,0.00,,,0.00,WUHU216HW,2013-01-21 14:06:00,
2013-01-21 06:11:00,32.2,30.4,30.25,North,0,0.4,0.7,93,0.00,,,0.00,WUHU216HW,2013-01-21 14:11:00,
2013-01-21 06:16:00,32.0,30.2,30.25,NNW,338,2.0,2.9,93,0.00,,,0.00,WUHU216HW,2013-01-21 14:16:00,
2013-01-21 06:21:00,32.0,30.2,30.25,WNW,293,0.7,2.9,93,0.00,,,0.00,WUHU216HW,2013-01-21 14:21:00,
2013-01-21 06:26:00,32.0,30.2,30.25,NNW,338,1.3,1.8,93,0.00,,,0.00,WUHU216HW,2013-01-21 14:26:00,
2013-01-21 06:31:00,32.0,30.2,30.25,NNW,338,0.7,1.3,93,0.00,,,0.00,WUHU216HW,2013-01-21 14:31:00,
2013-01-21 06:36:00,31.9,30.1,30.25,NNW,338,1.8,1.8,93,0.00,,,0.00,WUHU216HW,2013-01-21 14:36:00,
2013-01-21 06:41:00,31.9,30.1,30.25,NW,315,1.6,1.8,93,0.00,,,0.00,WUHU216HW,2013-01-21 14:41:00,
2013-01-21 06:46:00,31.7,29.9,30.25,North,0,0.4,2.2,93,0.00,,,0.00,WUHU216HW,2013-01-21 14:46:00,
2013-01-21 06:51:00,31.7,29.9,30.25,NNW,338,1.8,2.2,93,0.00,,,0.00,WUHU216HW,2013-01-21 14:51:00,
2013-01-21 06:56:00,31.7,29.9,30.25,NNE,23,2.2,2.7,93,0.00,,,0.00,WUHU216HW,2013-01-21 14:56:00,
2013-01-21 07:01:00,31.7,29.9,30.25,North,0,1.1,2.7,93,0.00,,,0.00,WUHU216HW,2013-01-21 15:01:00,
2013-01-21 07:06:00,31.5,29.7,30.25,NNE,23,0.4,2.0,93,0.00,,,0.00,WUHU216HW,2013-01-21 15:06:00,
2013-01-21 07:11:00,31.5,29.7,30.25,NW,315,1.1,1.1,93,0.00,,,0.00,WUHU216HW,2013-01-21 15:11:00,
2013-01-21 07:16:00,31.5,29.7,30.25,NNW,338,2.0,2.0,93,0.00,,,0.00,WUHU216HW,2013-01-21 15:16:00,
2013-01-21 07:21:00,31.5,29.7,30.24,NNW,338,0.7,2.0,93,0.00,,,0.00,WUHU216HW,2013-01-21 15:21:00,
2013-01-21 07:26:00,31.5,29.7,30.23,NNW,338,1.1,2.5,93,0.00,,,0.00,WUHU216HW,2013-01-21 15:26:00,
2013-01-21 07:31:00,31.5,29.7,30.23,NNW,338,1.6,2.5,93,0.00,,,0.00,WUHU216HW,2013-01-21 15:31:00,
2013-01-21 07:36:00,31.7,29.9,30.24,NW,315,1.8,2.2,93,0.00,,,0.00,WUHU216HW,2013-01-21 15:36:00,
2013-01-21 07:41:00,31.5,29.7,30.23,NNW,338,0.9,2.7,93,0.00,,,0.00,WUHU216HW,2013-01-21 15:41:00,
2013-01-21 07:46:00,31.3,29.5,30.23,NNW,338,0.4,2.7,93,0.00,,,0.00,WUHU216HW,2013-01-21 15:46:00,
2013-01-21 07:51:00,31.3,29.5,30.24,NNW,338,1.1,1.8,93,0.00,,,0.00,WUHU216HW,2013-01-21 15:51:00,
2013-01-21 07:56:00,31.3,29.5,30.24,NW,315,1.8,1.8,93,0.00,,,0.00,WUHU216HW,2013-01-21 15:56:00,
2013-01-21 08:01:00,31.3,29.5,30.24,NW,315,0.4,1.8,93,0.00,,,0.00,WUHU216HW,2013-01-21 16:01:00,
2013-01-21 08:06:00,31.3,29.5,30.24,NW,315,0.4,1.6,93,0.00,,,0.00,WUHU216HW,2013-01-21 16:06:00,
2013-01-21 08:11:00,31.3,29.5,30.24,NW,315,0.2,0.7,93,0.00,,,0.00,WUHU216HW,2013-01-21 16:11:00,
2013-01-21 08:16:00,31.5,29.7,30.25,NW,315,1.3,1.6,93,0.00,,,0.00,WUHU216HW,2013-01-21 16:16:00,
2013-01-21 08:21:00,31.5,29.7,30.25,NNW,338,1.1,2.0,93,0.00,,,0.00,WUHU216HW,2013-01-21 16:21:00,
2013-01-21 08:26:00,31.5,29.7,30.25,NNW,338,1.3,2.0,93,0.00,,,0.00,WUHU216HW,2013-01-21 16:26:00,
2013-01-21 08:31:00,31.7,29.9,30.25,NW,315,0.9,2.2,93,0.00,,,0.00,WUHU216HW,2013-01-21 16:31:00,
2013-01-21 08:36:00,31.7,29.9,30.25,North,0,0.7,2.2,93,0.00,,,0.00,WUHU216HW,2013-01-21 16:36:00,
2013-01-21 08:41:00,31.7,30.2,30.25,North,0,2.7,4.7,94,0.00,,,0.00,WUHU216HW,2013-01-21 16:41:00,
2013-01-21 08:46:00,31.9,30.3,30.25,NNW,338,4.7,4.7,94,0.00,,,0.00,WUHU216HW,2013-01-21 16:46:00,
2013-01-21 08:51:00,31.9,30.1,30.25,North,0,2.5,5.1,93,0.00,,,0.00,WUHU216HW,2013-01-21 16:51:00,
2013-01-21 08:56:00,31.9,30.1,30.25,NNW,338,1.6,5.1,93,0.00,,,0.00,WUHU216HW,2013-01-21 16:56:00,
2013-01-21 09:01:00,31.9,30.1,30.25,North,0,3.6,4.9,93,0.00,,,0.00,WUHU216HW,2013-01-21 17:01:00,
2013-01-21 09:06:00,32.0,30.2,30.25,North,0,2.2,3.6,93,0.00,,,0.00,WUHU216HW,2013-01-21 17:06:00,
2013-01-21 09:11:00,32.0,30.2,30.25,North,0,1.6,2.7,93,0.00,,,0.00,WUHU216HW,2013-01-21 17:11:00,
2013-01-21 09:16:00,32.0,30.2,30.26,North,0,5.4,5.4,93,0.00,,,0.00,WUHU216HW,2013-01-21 17:16:00,
2013-01-21 09:21:00,32.0,30.2,30.26,NNE,23,2.5,5.4,93,0.00,,,0.00,WUHU216HW,2013-01-21 17:21:00,
2013-01-21 09:26:00,32.0,30.2,30.26,North,0,3.4,5.4,93,0.00,,,0.00,WUHU216HW,2013-01-21 17:26:00,
2013-01-21 09:31:00,32.0,30.2,30.26,NNE,23,2.7,4.3,93,0.00,,,0.00,WUHU216HW,2013-01-21 17:31:00,
2013-01-21 09:36:00,32.0,30.2,30.27,North,0,2.2,4.0,93,0.00,,,0.00,WUHU216HW,2013-01-21 17:36:00,
2013-01-21 09:41:00,32.0,30.2,30.27,North,0,4.0,4.0,93,0.00,,,0.00,WUHU216HW,2013-01-21 17:41:00,
2013-01-21 09:46:00,32.0,30.2,30.27,North,0,3.1,5.4,93,0.00,,,0.00,WUHU216HW,2013-01-21 17:46:00,
2013-01-21 09:51:00,32.2,30.4,30.27,NNE,23,3.1,5.4,93,0.00,,,0.00,WUHU216HW,2013-01-21 17:51:00,
2013-01-21 09:56:00,32.4,30.6,30.27,North,0,4.7,4.7,93,0.00,,,0.00,WUHU216HW,2013-01-21 17:56:00,
2013-01-21 10:01:00,32.6,30.8,30.27,North,0,2.7,4.7,93,0.00,,,0.00,WUHU216HW,2013-01-21 18:01:00,
2013-01-21 10:06:00,32.8,31.0,30.27,North,0,2.7,3.8,93,0.00,,,0.00,WUHU216HW,2013-01-21 18:06:00,
2013-01-21 10:11:00,32.8,31.0,30.27,North,0,4.0,4.3,93,0.00,,,0.00,WUHU216HW,2013-01-21 18:11:00,
2013-01-21 10:16:00,32.8,31.0,30.27,North,0,3.1,6.0,93,0.00,,,0.00,WUHU216HW,2013-01-21 18:16:00,
2013-01-21 10:21:00,32.9,31.2,30.27,NNE,23,2.7,6.0,93,0.00,,,0.00,WUHU216HW,2013-01-21 18:21:00,
2013-01-21 10:26:00,33.3,31.4,30.27,ESE,113,0.0,2.7,93,0.00,,,0.00,WUHU216HW,2013-01-21 18:26:00,
2013-01-21 10:31:00,33.1,31.3,30.27,North,0,0.2,0.7,93,0.00,,,0.00,WUHU216HW,2013-01-21 18:31:00,
2013-01-21 10:36:00,33.5,31.6,30.27,North,0,0.0,0.2,93,0.00,,,0.00,WUHU216HW,2013-01-21 18:36:00,
2013-01-21 10:41:00,33.7,32.0,30.27,NNW,338,0.2,0.4,94,0.00,,,0.00,WUHU216HW,2013-01-21 18:41:00,
2013-01-21 10:46:00,34.0,32.4,30.27,NNW,338,1.1,1.1,94,0.00,,,0.00,WUHU216HW,2013-01-21 18:46:00,
2013-01-21 10:51:00,34.2,32.6,30.27,NW,315,0.7,1.1,94,0.00,,,0.00,WUHU216HW,2013-01-21 18:51:00,
2013-01-21 10:56:00,34.2,32.6,30.27,NW,315,0.0,0.9,94,0.00,,,0.00,WUHU216HW,2013-01-21 18:56:00,
2013-01-21 11:01:00,33.8,32.2,30.27,WSW,248,0.4,1.8,94,0.00,,,0.00,WUHU216HW,2013-01-21 19:01:00,
2013-01-21 11:06:00,33.5,31.6,30.27,West,270,0.7,1.8,93,0.00,,,0.00,WUHU216HW,2013-01-21 19:06:00,
2013-01-21 11:11:00,33.5,31.6,30.27,WSW,248,1.8,1.8,93,0.00,,,0.00,WUHU216HW,2013-01-21 19:11:00,
2013-01-21 11:16:00,33.5,31.6,30.27,West,270,1.1,2.5,93,0.00,,,0.00,WUHU216HW,2013-01-21 19:16:00,
2013-01-21 11:21:00,33.8,32.2,30.27,WNW,293,1.1,2.5,94,0.00,,,0.00,WUHU216HW,2013-01-21 19:21:00,
2013-01-21 11:26:00,34.2,32.6,30.26,NNW,338,0.7,2.5,94,0.00,,,0.00,WUHU216HW,2013-01-21 19:26:00,
2013-01-21 11:31:00,34.6,32.9,30.26,NW,315,2.2,2.2,94,0.00,,,0.00,WUHU216HW,2013-01-21 19:31:00,
2013-01-21 11:36:00,34.9,33.3,30.26,NNW,338,0.7,2.2,94,0.00,,,0.00,WUHU216HW,2013-01-21 19:36:00,
2013-01-21 11:41:00,35.3,33.7,30.25,NNW,338,0.4,1.1,94,0.00,,,0.00,WUHU216HW,2013-01-21 19:41:00,
2013-01-21 11:46:00,35.6,34.0,30.25,NNE,23,0.7,1.6,94,0.00,,,0.00,WUHU216HW,2013-01-21 19:46:00,
2013-01-21 11:51:00,35.8,34.2,30.25,North,0,0.0,1.6,94,0.00,,,0.00,WUHU216HW,2013-01-21 19:51:00,
2013-01-21 11:56:00,36.0,34.4,30.26,NW,315,1.3,1.3,94,0.00,,,0.00,WUHU216HW,2013-01-21 19:56:00,
2013-01-21 12:01:00,36.0,34.4,30.26,WNW,293,1.3,2.9,94,0.00,,,0.00,WUHU216HW,2013-01-21 20:01:00,
2013-01-21 12:06:00,36.0,34.4,30.25,NNW,338,0.0,2.9,94,0.00,,,0.00,WUHU216HW,2013-01-21 20:06:00,
2013-01-21 12:11:00,36.4,34.7,30.25,NNW,338,0.2,1.6,94,0.00,,,0.00,WUHU216HW,2013-01-21 20:11:00,
2013-01-21 12:16:00,36.5,34.9,30.25,NNW,338,0.2,1.1,94,0.00,,,0.00,WUHU216HW,2013-01-21 20:16:00,
2013-01-21 12:21:00,36.9,35.3,30.25,NW,315,0.9,0.9,94,0.00,,,0.00,WUHU216HW,2013-01-21 20:21:00,
2013-01-21 12:26:00,36.9,35.3,30.25,NNW,338,0.4,1.8,94,0.00,,,0.00,WUHU216HW,2013-01-21 20:26:00,
2013-01-21 12:31:00,37.1,35.5,30.25,NNW,338,0.9,2.0,94,0.00,,,0.00,WUHU216HW,2013-01-21 20:31:00,
2013-01-21 12:36:00,37.1,35.5,30.25,WNW,293,1.6,3.4,94,0.00,,,0.00,WUHU216HW,2013-01-21 20:36:00,
2013-01-21 12:41:00,37.1,35.5,30.25,NW,315,0.9,3.4,94,0.00,,,0.00,WUHU216HW,2013-01-21 20:41:00,
2013-01-21 12:46:00,37.1,35.5,30.25,NNW,338,0.9,2.7,94,0.00,,,0.00,WUHU216HW,2013-01-21 20:46:00,
2013-01-21 12:51:00,37.3,35.6,30.24,NW,315,1.8,2.9,94,0.00,,,0.00,WUHU216HW,2013-01-21 20:51:00,
2013-01-21 12:56:00,37.3,35.6,30.24,North,0,2.2,3.6,94,0.00,,,0.00,WUHU216HW,2013-01-21 20:56:00,
2013-01-21 13:01:00,37.4,35.8,30.24,NW,315,2.5,4.0,94,0.00,,,0.00,WUHU216HW,2013-01-21 21:01:00,
2013-01-21 13:06:00,37.4,35.8,30.24,North,0,3.1,4.0,94,0.00,,,0.00,WUHU216HW,2013-01-21 21:06:00,
2013-01-21 13:11:00,37.8,36.2,30.24,NNW,338,1.1,3.1,94,0.00,,,0.00,WUHU216HW,2013-01-21 21:11:00,
2013-01-21 13:16:00,37.8,35.9,30.23,WNW,293,1.8,3.1,93,0.00,,,0.00,WUHU216HW,2013-01-21 21:16:00,
2013-01-21 13:21:00,37.8,35.9,30.23,NNW,338,2.9,2.9,93,0.00,,,0.00,WUHU216HW,2013-01-21 21:21:00,
2013-01-21 13:26:00,37.4,35.3,30.23,NNW,338,1.1,4.0,92,0.00,,,0.00,WUHU216HW,2013-01-21 21:26:00,
2013-01-21 13:31:00,37.3,35.1,30.23,NW,315,1.8,4.0,92,0.00,,,0.00,WUHU216HW,2013-01-21 21:31:00,
2013-01-21 13:36:00,37.4,35.3,30.23,NW,315,1.1,2.5,92,0.00,,,0.00,WUHU216HW,2013-01-21 21:36:00,
2013-01-21 13:41:00,37.6,35.5,30.22,NNW,338,2.9,2.9,92,0.00,,,0.00,WUHU216HW,2013-01-21 21:41:00,
2013-01-21 13:46:00,37.4,35.3,30.22,WNW,293,2.0,2.9,92,0.00,,,0.00,WUHU216HW,2013-01-21 21:46:00,
2013-01-21 13:51:00,37.4,35.3,30.22,NNW,338,2.5,2.9,92,0.00,,,0.00,WUHU216HW,2013-01-21 21:51:00,
2013-01-21 13:56:00,37.4,35.3,30.22,NNW,338,1.8,2.9,92,0.00,,,0.00,WUHU216HW,2013-01-21 21:56:00,
2013-01-21 14:01:00,37.3,35.1,30.22,NW,315,2.2,2.9,92,0.00,,,0.00,WUHU216HW,2013-01-21 22:01:00,
2013-01-21 14:06:00,37.3,35.1,30.22,ESE,113,0.4,4.0,92,0.00,,,0.00,WUHU216HW,2013-01-21 22:06:00,
2013-01-21 14:11:00,37.3,35.1,30.21,NNE,23,0.0,4.0,92,0.00,,,0.00,WUHU216HW,2013-01-21 22:11:00,
2013-01-21 14:16:00,37.4,35.3,30.21,NNW,338,0.4,1.3,92,0.00,,,0.00,WUHU216HW,2013-01-21 22:16:00,
2013-01-21 14:21:00,37.8,35.4,30.21,North,0,0.4,2.5,91,0.00,,,0.00,WUHU216HW,2013-01-21 22:21:00,
2013-01-21 14:26:00,37.8,35.4,30.21,NNE,23,0.0,2.5,91,0.00,,,0.00,WUHU216HW,2013-01-21 22:26:00,
2013-01-21 14:31:00,37.8,35.4,30.21,NW,315,0.9,1.6,91,0.00,,,0.00,WUHU216HW,2013-01-21 22:31:00,
2013-01-21 14:36:00,37.8,35.1,30.21,NW,315,0.2,1.6,90,0.00,,,0.00,WUHU216HW,2013-01-21 22:36:00,
2013-01-21 14:41:00,37.8,35.1,30.21,NNW,338,0.0,0.9,90,0.00,,,0.00,WUHU216HW,2013-01-21 22:41:00,
2013-01-21 14:47:00,37.8,35.1,30.20,NW,315,1.1,2.7,90,0.00,,,0.00,WUHU216HW,2013-01-21 22:47:00,
2013-01-21 14:52:00,37.6,34.9,30.20,West,270,0.4,2.7,90,0.00,,,0.00,WUHU216HW,2013-01-21 22:52:00,
2013-01-21 14:57:00,37.6,34.9,30.20,East,90,1.1,2.0,90,0.00,,,0.00,WUHU216HW,2013-01-21 22:57:00,
2013-01-21 15:02:00,37.1,33.9,30.20,WSW,248,0.0,1.8,88,0.00,,,0.00,WUHU216HW,2013-01-21 23:02:00,
2013-01-21 15:07:00,36.9,33.9,30.20,SW,225,0.0,1.1,89,0.00,,,0.00,WUHU216HW,2013-01-21 23:07:00,
2013-01-21 15:12:00,37.1,34.1,30.20,NNW,338,0.0,1.1,89,0.00,,,0.00,WUHU216HW,2013-01-21 23:12:00,
2013-01-21 15:17:00,37.1,34.1,30.19,WSW,248,0.4,1.8,89,0.00,,,0.00,WUHU216HW,2013-01-21 23:17:00,
2013-01-21 15:22:00,36.9,33.9,30.19,WSW,248,0.7,1.8,89,0.00,,,0.00,WUHU216HW,2013-01-21 23:22:00,
2013-01-21 15:27:00,36.9,33.9,30.19,West,270,2.0,3.1,89,0.00,,,0.00,WUHU216HW,2013-01-21 23:27:00,
2013-01-21 15:32:00,36.7,33.8,30.20,WSW,248,0.9,3.1,89,0.00,,,0.00,WUHU216HW,2013-01-21 23:32:00,
2013-01-21 15:37:00,36.0,33.0,30.19,SW,225,0.7,3.1,89,0.00,,,0.00,WUHU216HW,2013-01-21 23:37:00,
2013-01-21 15:42:00,36.0,33.0,30.20,South,180,0.9,3.1,89,0.00,,,0.00,WUHU216HW,2013-01-21 23:42:00,
2013-01-21 15:47:00,36.0,33.0,30.19,NNW,338,0.4,2.5,89,0.00,,,0.00,WUHU216HW,2013-01-21 23:47:00,
2013-01-21 15:52:00,35.8,32.9,30.19,WSW,248,0.2,2.5,89,0.00,,,0.00,WUHU216HW,2013-01-21 23:52:00,
2013-01-21 15:57:00,35.8,32.9,30.19,NNW,338,0.4,1.8,89,0.00,,,0.00,WUHU216HW,2013-01-21 23:57:00,
2013-01-21 16:02:00,35.8,33.1,30.19,NNW,338,1.3,2.0,90,0.00,,,0.00,WUHU216HW,2013-01-22 00:02:00,
2013-01-21 16:07:00,35.8,33.1,30.19,NNW,338,0.2,2.9,90,0.00,,,0.00,WUHU216HW,2013-01-22 00:07:00,
2013-01-21 16:12:00,35.8,33.1,30.19,NNW,338,2.2,2.9,90,0.00,,,0.00,WUHU216HW,2013-01-22 00:12:00,
2013-01-21 16:17:00,35.8,33.1,30.19,North,0,3.4,3.4,90,0.00,,,0.00,WUHU216HW,2013-01-22 00:17:00,
2013-01-21 16:22:00,35.8,33.1,30.19,North,0,1.3,3.4,90,0.00,,,0.00,WUHU216HW,2013-01-22 00:22:00,
2013-01-21 16:27:00,35.6,32.9,30.19,NNW,338,0.2,3.4,90,0.00,,,0.00,WUHU216HW,2013-01-22 00:27:00,
2013-01-21 16:32:00,35.6,32.9,30.19,North,0,1.8,2.5,90,0.00,,,0.00,WUHU216HW,2013-01-22 00:32:00,
2013-01-21 16:37:00,35.6,32.9,30.20,ENE,68,0.0,1.8,90,0.00,,,0.00,WUHU216HW,2013-01-22 00:37:00,
2013-01-21 16:42:00,35.6,32.9,30.20,NE,45,0.4,1.8,90,0.00,,,0.00,WUHU216HW,2013-01-22 00:42:00,
2013-01-21 16:47:00,35.6,32.9,30.20,NNW,338,0.0,1.1,90,0.00,,,0.00,WUHU216HW,2013-01-22 00:47:00,
2013-01-21 16:52:00,35.6,32.9,30.20,East,90,0.0,0.4,90,0.00,,,0.00,WUHU216HW,2013-01-22 00:52:00,
2013-01-21 16:57:00,35.6,32.9,30.19,North,0,0.0,0.4,90,0.00,,,0.00,WUHU216HW,2013-01-22 00:57:00,
2013-01-21 17:02:00,35.6,32.9,30.19,SE,135,0.2,0.4,90,0.00,,,0.00,WUHU216HW,2013-01-22 01:02:00,
2013-01-21 17:07:00,35.6,33.2,30.19,ENE,68,0.0,0.9,91,0.00,,,0.00,WUHU216HW,2013-01-22 01:07:00,
2013-01-21 17:12:00,35.6,33.2,30.19,ENE,68,1.8,1.8,91,0.00,,,0.00,WUHU216HW,2013-01-22 01:12:00,
2013-01-21 17:17:00,35.6,33.2,30.19,NE,45,0.2,2.5,91,0.00,,,0.00,WUHU216HW,2013-01-22 01:17:00,
2013-01-21 17:22:00,35.6,33.2,30.19,ENE,68,1.1,2.5,91,0.00,,,0.00,WUHU216HW,2013-01-22 01:22:00,
2013-01-21 17:27:00,35.6,33.2,30.19,East,90,0.4,1.1,91,0.00,,,0.00,WUHU216HW,2013-01-22 01:27:00,
2013-01-21 17:32:00,35.6,33.2,30.19,East,90,0.2,1.1,91,0.00,,,0.00,WUHU216HW,2013-01-22 01:32:00,
2013-01-21 17:37:00,35.6,33.2,30.19,ESE,113,0.0,2.0,91,0.00,,,0.00,WUHU216HW,2013-01-22 01:37:00,
2013-01-21 17:42:00,35.6,33.2,30.19,SSW,203,0.4,2.0,91,0.00,,,0.00,WUHU216HW,2013-01-22 01:42:00,
2013-01-21 17:47:00,35.5,33.0,30.19,SSW,203,0.4,1.8,91,0.00,,,0.00,WUHU216HW,2013-01-22 01:47:00,
2013-01-21 17:52:00,35.3,32.9,30.19,SSE,158,1.8,2.2,91,0.00,,,0.00,WUHU216HW,2013-01-22 01:52:00,
2013-01-21 17:57:00,35.3,32.9,30.19,East,90,1.3,2.2,91,0.00,,,0.00,WUHU216HW,2013-01-22 01:57:00,
2013-01-21 18:02:00,34.9,32.5,30.19,SSE,158,0.4,2.2,91,0.00,,,0.00,WUHU216HW,2013-01-22 02:02:00,
2013-01-21 18:07:00,34.9,32.5,30.18,SE,135,1.3,2.2,91,0.00,,,0.00,WUHU216HW,2013-01-22 02:07:00,
2013-01-21 18:12:00,34.7,32.3,30.18,East,90,2.5,2.5,91,0.00,,,0.00,WUHU216HW,2013-01-22 02:12:00,
2013-01-21 18:17:00,34.2,31.8,30.18,East,90,1.3,4.0,91,0.00,,,0.00,WUHU216HW,2013-01-22 02:17:00,
2013-01-21 18:22:00,34.0,31.9,30.18,SE,135,0.4,4.0,92,0.00,,,0.00,WUHU216HW,2013-01-22 02:22:00,
2013-01-21 18:27:00,33.8,31.7,30.18,SE,135,0.7,2.0,92,0.00,,,0.00,WUHU216HW,2013-01-22 02:27:00,
2013-01-21 18:32:00,33.8,31.7,30.18,ESE,113,0.2,1.8,92,0.00,,,0.00,WUHU216HW,2013-01-22 02:32:00,
2013-01-21 18:37:00,33.7,31.5,30.18,NE,45,1.1,2.2,92,0.00,,,0.00,WUHU216HW,2013-01-22 02:37:00,
2013-01-21 18:42:00,33.5,31.3,30.19,North,0,0.4,2.2,92,0.00,,,0.00,WUHU216HW,2013-01-22 02:42:00,
2013-01-21 18:47:00,33.5,31.3,30.18,NE,45,0.9,1.8,92,0.00,,,0.00,WUHU216HW,2013-01-22 02:47:00,
2013-01-21 18:52:00,33.5,31.3,30.18,ENE,68,0.7,1.8,92,0.00,,,0.00,WUHU216HW,2013-01-22 02:52:00,
2013-01-21 18:57:00,33.5,31.3,30.18,NNE,23,0.4,1.8,92,0.00,,,0.00,WUHU216HW,2013-01-22 02:57:00,
2013-01-21 19:02:00,33.5,31.3,30.18,NNE,23,0.4,1.1,92,0.00,,,0.00,WUHU216HW,2013-01-22 03:02:00,
2013-01-21 19:07:00,33.5,31.3,30.17,North,0,0.2,1.1,92,0.00,,,0.00,WUHU216HW,2013-01-22 03:07:00,
2013-01-21 19:12:00,33.5,31.3,30.17,ENE,68,0.0,1.1,92,0.00,,,0.00,WUHU216HW,2013-01-22 03:12:00,
2013-01-21 19:17:00,33.5,31.3,30.17,ENE,68,0.0,1.1,92,0.00,,,0.00,WUHU216HW,2013-01-22 03:17:00,
2013-01-21 19:22:00,33.7,31.5,30.17,North,0,0.0,0.0,92,0.00,,,0.00,WUHU216HW,2013-01-22 03:22:00,
2013-01-21 19:27:00,33.7,31.5,30.17,ESE,113,0.0,0.4,92,0.00,,,0.00,WUHU216HW,2013-01-22 03:27:00,
2013-01-21 19:32:00,33.7,31.5,30.17,ESE,113,0.0,0.4,92,0.00,,,0.00,WUHU216HW,2013-01-22 03:32:00,
2013-01-21 19:37:00,33.8,31.7,30.18,NE,45,0.0,0.4,92,0.00,,,0.00,WUHU216HW,2013-01-22 03:37:00,
2013-01-21 19:42:00,33.8,31.7,30.18,South,180,4.3,4.3,92,0.00,,,0.00,WUHU216HW,2013-01-22 03:42:00,
2013-01-21 19:47:00,34.0,32.1,30.18,South,180,6.3,6.3,93,0.00,,,0.00,WUHU216HW,2013-01-22 03:47:00,
2013-01-21 19:52:00,34.2,32.3,30.18,South,180,2.5,6.3,93,0.00,,,0.00,WUHU216HW,2013-01-22 03:52:00,
2013-01-21 19:57:00,34.6,32.7,30.19,South,180,2.7,6.3,93,0.00,,,0.00,WUHU216HW,2013-01-22 03:57:00,
2013-01-21 20:02:00,34.9,33.3,30.19,South,180,6.3,6.9,94,0.00,,,0.00,WUHU216HW,2013-01-22 04:02:00,
2013-01-21 20:07:00,34.9,33.3,30.19,South,180,4.0,6.9,94,0.00,,,0.00,WUHU216HW,2013-01-22 04:07:00,
2013-01-21 20:12:00,34.9,33.3,30.19,South,180,5.6,6.3,94,0.00,,,0.00,WUHU216HW,2013-01-22 04:12:00,
2013-01-21 20:17:00,34.9,33.3,30.19,South,180,1.8,6.5,94,0.00,,,0.00,WUHU216HW,2013-01-22 04:17:00,
2013-01-21 20:22:00,34.9,33.3,30.19,South,180,4.0,6.5,94,0.00,,,0.00,WUHU216HW,2013-01-22 04:22:00,
2013-01-21 20:27:00,34.7,33.1,30.19,SSE,158,1.1,4.9,94,0.00,,,0.00,WUHU216HW,2013-01-22 04:27:00,
2013-01-21 20:32:00,34.7,33.1,30.19,South,180,2.5,6.0,94,0.00,,,0.00,WUHU216HW,2013-01-22 04:32:00,
2013-01-21 20:37:00,34.7,33.1,30.19,South,180,4.3,6.0,94,0.00,,,0.00,WUHU216HW,2013-01-22 04:37:00,
2013-01-21 20:42:00,34.9,33.3,30.19,SSE,158,2.0,5.4,94,0.00,,,0.00,WUHU216HW,2013-01-22 04:42:00,
2013-01-21 20:47:00,34.9,33.3,30.19,West,270,0.0,4.3,94,0.00,,,0.00,WUHU216HW,2013-01-22 04:47:00,
2013-01-21 20:52:00,34.9,33.3,30.19,ENE,68,0.2,0.7,94,0.00,,,0.00,WUHU216HW,2013-01-22 04:52:00,
2013-01-21 20:57:00,34.7,33.1,30.19,South,180,1.8,1.8,94,0.00,,,0.00,WUHU216HW,2013-01-22 04:57:00,
2013-01-21 21:02:00,34.7,33.1,30.19,ESE,113,0.4,3.1,94,0.00,,,0.00,WUHU216HW,2013-01-22 05:02:00,
2013-01-21 21:07:00,34.7,32.9,30.19,SE,135,0.0,3.1,93,0.00,,,0.00,WUHU216HW,2013-01-22 05:07:00,
2013-01-21 21:12:00,34.7,32.9,30.19,NE,45,0.4,1.3,93,0.00,,,0.00,WUHU216HW,2013-01-22 05:12:00,
2013-01-21 21:17:00,34.7,32.9,30.19,ENE,68,0.2,0.4,93,0.00,,,0.00,WUHU216HW,2013-01-22 05:17:00,
2013-01-21 21:22:00,34.7,32.9,30.19,East,90,0.0,1.3,93,0.00,,,0.00,WUHU216HW,2013-01-22 05:22:00,
2013-01-21 21:27:00,34.6,32.7,30.19,East,90,0.0,1.3,93,0.00,,,0.00,WUHU216HW,2013-01-22 05:27:00,
2013-01-21 21:32:00,34.7,32.9,30.19,SSW,203,0.0,1.1,93,0.00,,,0.00,WUHU216HW,2013-01-22 05:32:00,
2013-01-21 21:37:00,34.7,32.9,30.19,South,180,0.0,1.1,93,0.00,,,0.00,WUHU216HW,2013-01-22 05:37:00,
2013-01-21 21:42:00,34.7,32.9,30.19,SE,135,0.2,1.3,93,0.00,,,0.00,WUHU216HW,2013-01-22 05:42:00,
2013-01-21 21:47:00,34.7,32.9,30.19,South,180,4.3,4.3,93,0.00,,,0.00,WUHU216HW,2013-01-22 05:47:00,
2013-01-21 21:52:00,34.7,32.9,30.19,South,180,1.8,4.3,93,0.00,,,0.00,WUHU216HW,2013-01-22 05:52:00,
2013-01-21 21:57:00,34.9,33.3,30.19,South,180,1.8,6.0,94,0.00,,,0.00,WUHU216HW,2013-01-22 05:57:00,
2013-01-21 22:02:00,34.7,32.9,30.19,SE,135,1.3,6.0,93,0.00,,,0.00,WUHU216HW,2013-01-22 06:02:00,
2013-01-21 22:07:00,34.6,32.7,30.19,SSW,203,2.0,4.7,93,0.00,,,0.00,WUHU216HW,2013-01-22 06:07:00,
2013-01-21 22:12:00,34.6,32.7,30.18,SE,135,0.0,4.5,93,0.00,,,0.00,WUHU216HW,2013-01-22 06:12:00,
2013-01-21 22:17:00,34.6,32.7,30.18,SSE,158,2.5,3.8,93,0.00,,,0.00,WUHU216HW,2013-01-22 06:17:00,
2013-01-21 22:22:00,34.4,32.5,30.19,SSE,158,2.9,4.0,93,0.00,,,0.00,WUHU216HW,2013-01-22 06:22:00,
2013-01-21 22:27:00,34.4,32.5,30.18,SE,135,1.8,4.0,93,0.00,,,0.00,WUHU216HW,2013-01-22 06:27:00,
2013-01-21 22:32:00,34.2,32.3,30.18,South,180,1.1,4.0,93,0.00,,,0.00,WUHU216HW,2013-01-22 06:32:00,
2013-01-21 22:37:00,34.2,32.3,30.18,South,180,3.4,4.3,93,0.00,,,0.00,WUHU216HW,2013-01-22 06:37:00,
2013-01-21 22:42:00,34.2,32.3,30.18,ESE,113,0.4,4.3,93,0.00,,,0.00,WUHU216HW,2013-01-22 06:42:00,
2013-01-21 22:47:00,34.2,32.3,30.18,East,90,0.9,1.8,93,0.00,,,0.00,WUHU216HW,2013-01-22 06:47:00,
2013-01-21 22:52:00,34.0,32.1,30.18,ESE,113,0.2,1.6,93,0.00,,,0.00,WUHU216HW,2013-01-22 06:52:00,
2013-01-21 22:57:00,33.8,32.0,30.18,East,90,0.4,1.6,93,0.00,,,0.00,WUHU216HW,2013-01-22 06:57:00,
2013-01-21 23:02:00,33.8,32.0,30.18,East,90,0.0,0.9,93,0.00,,,0.00,WUHU216HW,2013-01-22 07:02:00,
2013-01-21 23:07:00,33.7,31.8,30.19,ESE,113,0.0,1.1,93,0.00,,,0.00,WUHU216HW,2013-01-22 07:07:00,
2013-01-21 23:12:00,33.5,31.3,30.19,East,90,0.0,1.8,92,0.00,,,0.00,WUHU216HW,2013-01-22 07:12:00,
2013-01-21 23:17:00,33.7,31.5,30.19,SSE,158,0.0,1.8,92,0.00,,,0.00,WUHU216HW,2013-01-22 07:17:00,
2013-01-21 23:22:00,33.7,31.8,30.18,NE,45,0.7,1.3,93,0.00,,,0.00,WUHU216HW,2013-01-22 07:22:00,
2013-01-21 23:27:00,33.7,31.8,30.18,SSE,158,1.8,2.9,93,0.00,,,0.00,WUHU216HW,2013-01-22 07:27:00,
2013-01-21 23:32:00,33.8,32.0,30.18,SSW,203,3.4,4.3,93,0.00,,,0.00,WUHU216HW,2013-01-22 07:32:00,
2013-01-21 23:37:00,34.2,32.6,30.19,SSW,203,4.0,5.4,94,0.00,,,0.00,WUHU216HW,2013-01-22 07:37:00,
2013-01-21 23:42:00,34.0,32.1,30.19,SW,225,2.9,5.4,93,0.00,,,0.00,WUHU216HW,2013-01-22 07:42:00,
2013-01-21 23:47:00,33.5,31.3,30.18,SW,225,1.6,4.9,92,0.00,,,0.00,WUHU216HW,2013-01-22 07:47:00,
2013-01-21 23:52:00,33.3,31.1,30.17,SSW,203,1.3,3.6,92,0.00,,,0.00,WUHU216HW,2013-01-22 07:52:00,
2013-01-21 23:57:00,33.5,31.3,30.18,South,180,3.6,3.6,92,0.00,,,0.00,WUHU216HW,2013-01-22 07:57:00,